UAE3232 OMDB-VAAH

Flight info

Callsign UAE3232
Flight time 2h 7m
Altitude 41000
Route IVURO M677 LALDO B505 NADSO B524 ALPOR M504 TELEM N893 VASLA VASLA1A
Aircraft A359/H-SDE2E3GHIJ3J4J5LM1ORWXY/LB1D1

Departure

Time 2026-04-26 08:46
Airport Dubai International Airport (OMDB)

Arrival

Time 2026-04-26 10:54
Airport Sardar Vallabh Patel International Airport (VAAH)
Time Latitude Longitude Altitude Speed Heading
2026-04-26 07:50 25.24887 55.36295 28 ft 0 kts 212°
2026-04-26 08:33 25.24899 55.36303 27 ft 4 kts 216°
2026-04-26 08:33 25.24920 55.36321 26 ft 4 kts 224°
2026-04-26 08:33 25.24935 55.36341 26 ft 3 kts 239°
2026-04-26 08:34 25.24943 55.36363 26 ft 3 kts 263°
2026-04-26 08:34 25.24942 55.36385 26 ft 3 kts 287°
2026-04-26 08:34 25.24936 55.36402 25 ft 2 kts 297°
2026-04-26 08:34 25.24931 55.36412 26 ft 2 kts 300°
2026-04-26 08:35 25.24927 55.36419 26 ft 0 kts 301°
2026-04-26 08:36 25.24928 55.36419 26 ft 1 kts 301°
2026-04-26 08:36 25.24940 55.36395 26 ft 7 kts 298°
2026-04-26 08:37 25.24971 55.36339 28 ft 11 kts 303°
2026-04-26 08:37 25.25023 55.36252 28 ft 16 kts 304°
2026-04-26 08:37 25.25089 55.36135 28 ft 20 kts 299°
2026-04-26 08:37 25.25157 55.36001 28 ft 19 kts 301°
2026-04-26 08:38 25.25236 55.35865 28 ft 23 kts 303°
2026-04-26 08:38 25.25328 55.35707 27 ft 26 kts 302°
2026-04-26 08:38 25.25429 55.35528 27 ft 29 kts 300°
2026-04-26 08:38 25.25536 55.35336 27 ft 31 kts 302°
2026-04-26 08:39 25.25622 55.35185 27 ft 6 kts 307°
2026-04-26 08:39 25.25665 55.35156 27 ft 7 kts 352°
2026-04-26 08:39 25.25727 55.35180 27 ft 13 kts 29°
2026-04-26 08:39 25.25818 55.35240 28 ft 18 kts 32°
2026-04-26 08:40 25.25937 55.35323 28 ft 22 kts 36°
2026-04-26 08:40 25.25976 55.35364 28 ft 0 kts 50°
2026-04-26 08:40 25.25981 55.35370 28 ft 4 kts 50°
2026-04-26 08:40 25.26009 55.35417 28 ft 10 kts 67°
2026-04-26 08:41 25.26008 55.35517 29 ft 16 kts 109°
2026-04-26 08:41 25.25942 55.35642 29 ft 22 kts 121°
2026-04-26 08:41 25.25850 55.35805 29 ft 28 kts 122°
2026-04-26 08:41 25.25742 55.36003 30 ft 32 kts 121°
2026-04-26 08:42 25.25616 55.36229 30 ft 36 kts 123°
2026-04-26 08:42 25.25473 55.36476 30 ft 40 kts 122°
2026-04-26 08:42 25.25318 55.36748 30 ft 43 kts 122°
2026-04-26 08:42 25.25155 55.37041 31 ft 46 kts 122°
2026-04-26 08:43 25.24987 55.37340 32 ft 42 kts 122°
2026-04-26 08:43 25.24831 55.37618 31 ft 33 kts 122°
2026-04-26 08:43 25.24749 55.37759 31 ft 21 kts 121°
2026-04-26 08:43 25.24718 55.37839 31 ft 7 kts 94°
2026-04-26 08:44 25.24735 55.37874 31 ft 0 kts 45°
2026-04-26 08:44 25.24736 55.37874 31 ft 1 kts 45°
2026-04-26 08:44 25.24751 55.37889 32 ft 5 kts 40°
2026-04-26 08:44 25.24789 55.37916 34 ft 8 kts 33°
2026-04-26 08:45 25.24839 55.37930 36 ft 6 kts 347°
2026-04-26 08:45 25.24880 55.37890 36 ft 9 kts 303°
2026-04-26 08:45 25.24883 55.37886 36 ft 4 kts 303°
2026-04-26 08:45 25.25049 55.37593 38 ft 83 kts 301°
2026-04-26 08:46 25.25468 55.36835 35 ft 147 kts 302°
2026-04-26 08:46 25.26060 55.35796 587 ft 161 kts 302°
2026-04-26 08:46 25.26651 55.34737 1360 ft 167 kts 303°
2026-04-26 08:46 25.27283 55.33556 1826 ft 187 kts 302°
2026-04-26 08:47 25.27990 55.32240 2267 ft 212 kts 302°
2026-04-26 08:47 25.28802 55.30759 2734 ft 232 kts 306°
2026-04-26 08:47 25.29961 55.29569 3730 ft 227 kts 330°
2026-04-26 08:47 25.31478 55.29127 4654 ft 229 kts 359°
2026-04-26 08:48 25.33069 55.29244 5369 ft 235 kts
2026-04-26 08:48 25.34718 55.29406 6134 ft 240 kts
2026-04-26 08:48 25.36408 55.29527 6910 ft 246 kts
2026-04-26 08:48 25.38125 55.29635 7685 ft 249 kts
2026-04-26 08:49 25.39811 55.30138 8449 ft 257 kts 26°
2026-04-26 08:49 25.41227 55.31445 8978 ft 278 kts 47°
2026-04-26 08:49 25.42470 55.33159 9512 ft 294 kts 51°
2026-04-26 08:49 25.43688 55.35029 10213 ft 303 kts 58°
2026-04-26 08:50 25.44511 55.37253 10597 ft 325 kts 78°
2026-04-26 08:50 25.44575 55.39818 10964 ft 344 kts 95°
2026-04-26 08:50 25.44337 55.42520 11304 ft 361 kts 97°
2026-04-26 08:50 25.44063 55.45332 11778 ft 372 kts 97°
2026-04-26 08:51 25.43513 55.51109 13153 ft 382 kts 97°
2026-04-26 08:51 25.43235 55.54049 13816 ft 386 kts 97°
2026-04-26 08:51 25.42953 55.57022 14390 ft 391 kts 97°
2026-04-26 08:52 25.42671 55.60017 14946 ft 396 kts 97°
2026-04-26 08:52 25.42383 55.63069 15487 ft 401 kts 97°
2026-04-26 08:52 25.42093 55.66156 16045 ft 406 kts 97°
2026-04-26 08:52 25.41798 55.69282 16605 ft 411 kts 97°
2026-04-26 08:53 25.41498 55.72442 17173 ft 415 kts 97°
2026-04-26 08:53 25.41182 55.75635 17724 ft 420 kts 98°
2026-04-26 08:53 25.40636 55.78827 18270 ft 424 kts 104°
2026-04-26 08:53 25.40422 55.79857 18428 ft 425 kts 104°
2026-04-26 08:54 25.39505 55.84112 19108 ft 431 kts 104°
2026-04-26 08:54 25.38815 55.87311 19632 ft 435 kts 105°
2026-04-26 08:54 25.38111 55.90586 20170 ft 439 kts 105°
2026-04-26 08:54 25.37404 55.93875 20712 ft 443 kts 105°
2026-04-26 08:55 25.36691 55.97218 21273 ft 447 kts 105°
2026-04-26 08:55 25.35969 56.00580 21810 ft 452 kts 105°
2026-04-26 08:55 25.35239 56.03974 22348 ft 456 kts 105°
2026-04-26 08:55 25.34501 56.07402 22902 ft 460 kts 105°
2026-04-26 08:56 25.33758 56.10857 23462 ft 464 kts 105°
2026-04-26 08:56 25.33261 56.13168 23777 ft 467 kts 105°
2026-04-26 08:56 25.32514 56.17930 24394 ft 474 kts 99°
2026-04-26 08:56 25.32149 56.21543 24902 ft 478 kts 97°
2026-04-26 08:57 25.31850 56.25241 25396 ft 481 kts 96°
2026-04-26 08:57 25.31578 56.28944 25904 ft 485 kts 96°
2026-04-26 08:57 25.31302 56.32680 26344 ft 490 kts 96°
2026-04-26 08:57 25.31012 56.36458 26839 ft 494 kts 96°
2026-04-26 08:58 25.30710 56.40249 27326 ft 497 kts 96°
2026-04-26 08:58 25.30481 56.44076 27793 ft 502 kts 94°
2026-04-26 08:58 25.30363 56.47961 28265 ft 506 kts 92°
2026-04-26 08:58 25.30290 56.51867 28719 ft 510 kts 92°
2026-04-26 08:59 25.30209 56.55751 29152 ft 513 kts 94°
2026-04-26 08:59 25.29779 56.59666 29584 ft 515 kts 103°
2026-04-26 08:59 25.28794 56.63470 30012 ft 516 kts 112°
2026-04-26 08:59 25.27528 56.67197 30308 ft 520 kts 114°
2026-04-26 09:00 25.26157 56.70907 30595 ft 524 kts 115°
2026-04-26 09:00 25.24726 56.74632 30887 ft 529 kts 115°
2026-04-26 09:00 25.23249 56.78430 31183 ft 533 kts 114°
2026-04-26 09:00 25.21785 56.82203 31461 ft 537 kts 114°
2026-04-26 09:01 25.20315 56.86015 31735 ft 541 kts 114°
2026-04-26 09:01 25.19344 56.88548 31919 ft 544 kts 113°
2026-04-26 09:01 25.17877 56.92386 32182 ft 547 kts 113°
2026-04-26 09:01 25.16386 56.96296 32444 ft 551 kts 112°
2026-04-26 09:02 25.14897 57.00206 32707 ft 554 kts 112°
2026-04-26 09:02 25.13396 57.04145 32974 ft 557 kts 112°
2026-04-26 09:02 25.11400 57.09375 33457 ft 558 kts 111°
2026-04-26 09:02 25.10380 57.12044 33702 ft 559 kts 111°
2026-04-26 09:03 25.08866 57.16000 34006 ft 560 kts 111°
2026-04-26 09:03 25.07352 57.19953 34359 ft 559 kts 111°
2026-04-26 09:03 25.05838 57.23902 34752 ft 557 kts 111°
2026-04-26 09:03 25.04330 57.27830 35141 ft 556 kts 111°
2026-04-26 09:04 25.02823 57.31752 35518 ft 555 kts 111°
2026-04-26 09:04 25.01338 57.35615 35896 ft 554 kts 111°
2026-04-26 09:04 24.99835 57.39521 36240 ft 553 kts 111°
2026-04-26 09:04 24.98333 57.43421 36588 ft 552 kts 111°
2026-04-26 09:05 24.96829 57.47321 36918 ft 551 kts 111°
2026-04-26 09:05 24.95329 57.51209 37229 ft 551 kts 111°
2026-04-26 09:05 24.93828 57.55093 37565 ft 550 kts 111°
2026-04-26 09:05 24.92332 57.58964 37894 ft 549 kts 111°
2026-04-26 09:06 24.90830 57.62845 38228 ft 548 kts 111°
2026-04-26 09:06 24.89333 57.66710 38553 ft 548 kts 111°
2026-04-26 09:06 24.87838 57.70567 38804 ft 547 kts 111°
2026-04-26 09:06 24.86346 57.74412 39062 ft 546 kts 111°
2026-04-26 09:07 24.84855 57.78251 39328 ft 544 kts 111°
2026-04-26 09:07 24.83492 57.82128 39561 ft 542 kts 104°
2026-04-26 09:07 24.82512 57.86114 39810 ft 539 kts 101°
2026-04-26 09:07 24.81649 57.90066 40043 ft 537 kts 100°
2026-04-26 09:08 24.80823 57.94070 40275 ft 536 kts 99°
2026-04-26 09:08 24.80020 57.98075 40501 ft 535 kts 99°
2026-04-26 09:08 24.79222 58.02081 40731 ft 535 kts 99°
2026-04-26 09:09 24.77615 58.10086 40835 ft 534 kts 99°
2026-04-26 09:09 24.75990 58.18065 40841 ft 534 kts 99°
2026-04-26 09:10 24.74355 58.26034 40838 ft 534 kts 99°
2026-04-26 09:10 24.72713 58.34013 40829 ft 534 kts 99°
2026-04-26 09:11 24.71069 58.41976 40828 ft 534 kts 99°
2026-04-26 09:11 24.69424 58.49931 40829 ft 533 kts 99°
2026-04-26 09:12 24.67775 58.57881 40830 ft 533 kts 99°
2026-04-26 09:12 24.66122 58.65823 40828 ft 533 kts 99°
2026-04-26 09:13 24.64466 58.73762 40826 ft 532 kts 100°
2026-04-26 09:13 24.62808 58.81688 40826 ft 532 kts 100°
2026-04-26 09:14 24.61147 58.89605 40823 ft 531 kts 100°
2026-04-26 09:14 24.59482 58.97520 40827 ft 531 kts 100°
2026-04-26 09:15 24.57824 59.05379 40828 ft 531 kts 100°
2026-04-26 09:15 24.56143 59.13326 40826 ft 530 kts 100°
2026-04-26 09:16 24.54471 59.21212 40821 ft 530 kts 100°
2026-04-26 09:16 24.52800 59.29085 40818 ft 529 kts 100°
2026-04-26 09:17 24.51120 59.36947 40822 ft 528 kts 100°
2026-04-26 09:17 24.49448 59.44748 40822 ft 528 kts 100°
2026-04-26 09:18 24.47765 59.52590 40821 ft 527 kts 100°
2026-04-26 09:18 24.46081 59.60420 40820 ft 527 kts 100°
2026-04-26 09:19 24.44394 59.68243 40819 ft 526 kts 100°
2026-04-26 09:19 24.42705 59.76053 40819 ft 526 kts 100°
2026-04-26 09:20 24.41010 59.83870 40816 ft 526 kts 100°
2026-04-26 09:20 24.39315 59.91664 40820 ft 526 kts 101°
2026-04-26 09:21 24.37610 59.99490 40818 ft 526 kts 101°
2026-04-26 09:21 24.35902 60.07303 40818 ft 526 kts 101°
2026-04-26 09:22 24.34199 60.15098 40817 ft 526 kts 101°
2026-04-26 09:22 24.32487 60.22895 40817 ft 525 kts 101°
2026-04-26 09:23 24.30772 60.30679 40816 ft 525 kts 101°
2026-04-26 09:23 24.29055 60.38453 40817 ft 525 kts 101°
2026-04-26 09:24 24.27335 60.46230 40816 ft 524 kts 101°
2026-04-26 09:24 24.25610 60.54008 40816 ft 524 kts 101°
2026-04-26 09:25 24.23887 60.61760 40818 ft 524 kts 101°
2026-04-26 09:25 24.22169 60.69468 40816 ft 523 kts 101°
2026-04-26 09:26 24.20443 60.77205 40815 ft 523 kts 101°
2026-04-26 09:26 24.18716 60.84945 40815 ft 522 kts 101°
2026-04-26 09:27 24.16983 60.92671 40815 ft 522 kts 101°
2026-04-26 09:27 24.15248 61.00395 40816 ft 522 kts 101°
2026-04-26 09:28 24.13512 61.08107 40814 ft 521 kts 101°
2026-04-26 09:28 24.11775 61.15803 40814 ft 521 kts 101°
2026-04-26 09:29 24.10035 61.23499 40815 ft 520 kts 101°
2026-04-26 09:29 24.08310 61.31186 40815 ft 519 kts 99°
2026-04-26 09:30 24.07465 61.38932 40813 ft 515 kts 91°
2026-04-26 09:30 24.06972 61.46753 40814 ft 515 kts 90°
2026-04-26 09:31 24.06531 61.54575 40815 ft 515 kts 90°
2026-04-26 09:31 24.06078 61.62397 40812 ft 515 kts 91°
2026-04-26 09:32 24.05608 61.70221 40813 ft 515 kts 91°
2026-04-26 09:32 24.05129 61.78041 40813 ft 515 kts 91°
2026-04-26 09:33 24.04646 61.85859 40814 ft 515 kts 91°
2026-04-26 09:33 24.04160 61.93672 40809 ft 514 kts 91°
2026-04-26 09:34 24.03671 62.01473 40808 ft 514 kts 91°
2026-04-26 09:34 24.03178 62.09277 40812 ft 514 kts 91°
2026-04-26 09:35 24.02681 62.17086 40812 ft 514 kts 91°
2026-04-26 09:35 24.02180 62.24890 40814 ft 514 kts 91°
2026-04-26 09:36 24.01675 62.32695 40814 ft 514 kts 92°
2026-04-26 09:36 24.01170 62.40439 40814 ft 514 kts 92°
2026-04-26 09:37 24.00658 62.48226 40809 ft 514 kts 92°
2026-04-26 09:37 24.00141 62.56031 40809 ft 514 kts 92°
2026-04-26 09:38 23.99621 62.63824 40810 ft 514 kts 92°
2026-04-26 09:38 23.99096 62.71633 40810 ft 514 kts 92°
2026-04-26 09:39 23.98568 62.79427 40819 ft 514 kts 92°
2026-04-26 09:39 23.98035 62.87223 40812 ft 514 kts 92°
2026-04-26 09:40 23.97500 62.95009 40806 ft 514 kts 92°
2026-04-26 09:40 23.96959 63.02810 40809 ft 514 kts 92°
2026-04-26 09:41 23.96415 63.10600 40812 ft 514 kts 92°
2026-04-26 09:41 23.95868 63.18390 40813 ft 514 kts 92°
2026-04-26 09:42 23.95315 63.26192 40819 ft 514 kts 92°
2026-04-26 09:42 23.94852 63.32678 40817 ft 514 kts 92°
2026-04-26 09:43 23.94293 63.40478 40816 ft 514 kts 92°
2026-04-26 09:43 23.93729 63.48270 40808 ft 515 kts 92°
2026-04-26 09:44 23.93161 63.56074 40811 ft 515 kts 92°
2026-04-26 09:44 23.92589 63.63876 40812 ft 515 kts 92°
2026-04-26 09:45 23.92013 63.71683 40809 ft 515 kts 93°
2026-04-26 09:45 23.91433 63.79486 40815 ft 515 kts 93°
2026-04-26 09:46 23.90849 63.87284 40810 ft 515 kts 93°
2026-04-26 09:46 23.90262 63.95077 40818 ft 514 kts 93°
2026-04-26 09:47 23.89677 64.02792 40810 ft 514 kts 93°
2026-04-26 09:47 23.89082 64.10581 40806 ft 514 kts 93°
2026-04-26 09:48 23.88484 64.18361 40812 ft 514 kts 93°
2026-04-26 09:48 23.87882 64.26141 40807 ft 514 kts 93°
2026-04-26 09:49 23.87280 64.33875 40806 ft 514 kts 93°
2026-04-26 09:49 23.86670 64.41648 40807 ft 514 kts 93°
2026-04-26 09:50 23.86057 64.49428 40815 ft 514 kts 93°
2026-04-26 09:50 23.85439 64.57199 40803 ft 513 kts 93°
2026-04-26 09:51 23.84818 64.64969 40816 ft 513 kts 93°
2026-04-26 09:51 23.84193 64.72743 40807 ft 514 kts 94°
2026-04-26 09:52 23.83564 64.80515 40816 ft 513 kts 94°
2026-04-26 09:52 23.83370 64.92185 40816 ft 512 kts 88°
2026-04-26 09:53 23.83424 64.99962 40806 ft 512 kts 88°
2026-04-26 09:53 23.83483 65.07742 40815 ft 512 kts 88°
2026-04-26 09:54 23.83529 65.15530 40816 ft 512 kts 88°
2026-04-26 09:54 23.83565 65.23314 40818 ft 512 kts 88°
2026-04-26 09:55 23.83597 65.31100 40802 ft 512 kts 88°
2026-04-26 09:55 23.83625 65.38895 40816 ft 512 kts 88°
2026-04-26 09:56 23.83650 65.46675 40806 ft 512 kts 88°
2026-04-26 09:56 23.83670 65.54439 40816 ft 512 kts 89°
2026-04-26 09:57 23.83687 65.62255 40803 ft 512 kts 89°
2026-04-26 09:57 23.83700 65.69984 40802 ft 512 kts 89°
2026-04-26 09:58 23.83709 65.77774 40798 ft 512 kts 89°
2026-04-26 09:58 23.83714 65.85560 40805 ft 512 kts 89°
2026-04-26 09:59 23.83715 65.93350 40805 ft 512 kts 89°
2026-04-26 09:59 23.83712 66.01142 40802 ft 513 kts 89°
2026-04-26 10:00 23.83706 66.08934 40809 ft 513 kts 89°
2026-04-26 10:00 23.83695 66.16723 40802 ft 513 kts 89°
2026-04-26 10:01 23.83680 66.24511 40803 ft 513 kts 89°
2026-04-26 10:01 23.83662 66.32259 40804 ft 513 kts 89°
2026-04-26 10:02 23.83639 66.40054 40800 ft 513 kts 89°
2026-04-26 10:02 23.83613 66.47858 40799 ft 514 kts 89°
2026-04-26 10:03 23.83583 66.55657 40799 ft 514 kts 90°
2026-04-26 10:03 23.83549 66.63460 40800 ft 514 kts 90°
2026-04-26 10:04 23.83511 66.71275 40801 ft 514 kts 90°
2026-04-26 10:04 23.83469 66.79058 40799 ft 514 kts 90°
2026-04-26 10:05 23.83422 66.86895 40812 ft 514 kts 90°
2026-04-26 10:05 23.83372 66.94701 40799 ft 514 kts 90°
2026-04-26 10:06 23.83801 67.02481 40801 ft 513 kts 81°
2026-04-26 10:06 23.84981 67.10167 40798 ft 513 kts 79°
2026-04-26 10:07 23.86273 67.17840 40801 ft 513 kts 79°
2026-04-26 10:07 23.87563 67.25499 40807 ft 513 kts 79°
2026-04-26 10:08 23.88836 67.33180 40804 ft 513 kts 79°
2026-04-26 10:08 23.90098 67.40862 40810 ft 513 kts 79°
2026-04-26 10:09 23.91354 67.48546 40814 ft 513 kts 79°
2026-04-26 10:09 23.92608 67.56232 40815 ft 513 kts 79°
2026-04-26 10:10 23.93858 67.63918 40816 ft 514 kts 79°
2026-04-26 10:10 23.95097 67.71559 40814 ft 514 kts 79°
2026-04-26 10:11 23.96340 67.79252 40807 ft 514 kts 79°
2026-04-26 10:11 23.97579 67.86947 40805 ft 514 kts 79°
2026-04-26 10:12 23.98815 67.94650 40798 ft 514 kts 79°
2026-04-26 10:12 24.00048 68.02350 40794 ft 514 kts 79°
2026-04-26 10:13 24.01276 68.10052 40790 ft 514 kts 79°
2026-04-26 10:13 24.02500 68.17760 40783 ft 514 kts 79°
2026-04-26 10:14 24.03722 68.25469 40777 ft 514 kts 79°
2026-04-26 10:14 24.04939 68.33181 40774 ft 514 kts 79°
2026-04-26 10:15 24.05972 68.39742 40766 ft 514 kts 79°
2026-04-26 10:15 24.07181 68.47448 40764 ft 514 kts 79°
2026-04-26 10:16 24.08387 68.55163 40758 ft 514 kts 79°
2026-04-26 10:16 24.09589 68.62876 40754 ft 514 kts 79°
2026-04-26 10:17 24.10784 68.70583 40747 ft 514 kts 79°
2026-04-26 10:17 24.10987 68.78330 40744 ft 514 kts 98°
2026-04-26 10:18 24.09340 68.85916 40744 ft 513 kts 106°
2026-04-26 10:18 24.07383 68.93432 40741 ft 514 kts 107°
2026-04-26 10:19 24.05423 69.00957 40737 ft 514 kts 107°
2026-04-26 10:19 24.03465 69.08469 40736 ft 514 kts 107°
2026-04-26 10:20 24.01844 69.14673 40734 ft 514 kts 107°
2026-04-26 10:20 23.99534 69.23507 40732 ft 514 kts 107°
2026-04-26 10:21 23.97578 69.30965 40724 ft 513 kts 107°
2026-04-26 10:21 23.95594 69.38516 40725 ft 513 kts 107°
2026-04-26 10:22 23.93629 69.45976 40722 ft 513 kts 107°
2026-04-26 10:22 23.91650 69.53475 40721 ft 513 kts 107°
2026-04-26 10:23 23.89670 69.60962 40720 ft 513 kts 107°
2026-04-26 10:23 23.87685 69.68452 40721 ft 513 kts 107°
2026-04-26 10:24 23.85698 69.75933 40724 ft 513 kts 107°
2026-04-26 10:24 23.84029 69.82201 40723 ft 512 kts 107°
2026-04-26 10:25 23.82035 69.89681 40729 ft 512 kts 107°
2026-04-26 10:25 23.80039 69.97149 40730 ft 512 kts 107°
2026-04-26 10:26 23.78041 70.04613 40733 ft 512 kts 107°
2026-04-26 10:26 23.76057 70.12005 40736 ft 512 kts 107°
2026-04-26 10:27 23.74036 70.19519 40738 ft 511 kts 107°
2026-04-26 10:27 23.72030 70.26967 40743 ft 511 kts 107°
2026-04-26 10:28 23.70036 70.34352 40736 ft 511 kts 107°
2026-04-26 10:28 23.68030 70.41766 40740 ft 511 kts 107°
2026-04-26 10:29 23.65996 70.49265 40742 ft 510 kts 107°
2026-04-26 10:29 23.63979 70.56688 40405 ft 509 kts 107°
2026-04-26 10:30 23.62971 70.60391 39759 ft 509 kts 107°
2026-04-26 10:30 23.61962 70.64096 39069 ft 511 kts 106°
2026-04-26 10:30 23.60948 70.67815 38433 ft 512 kts 106°
2026-04-26 10:30 23.59933 70.71530 37635 ft 512 kts 106°
2026-04-26 10:31 23.58916 70.75254 36881 ft 511 kts 106°
2026-04-26 10:31 23.57903 70.78956 36168 ft 510 kts 106°
2026-04-26 10:31 23.56886 70.82668 35421 ft 510 kts 105°
2026-04-26 10:31 23.55886 70.86319 34711 ft 509 kts 105°
2026-04-26 10:32 23.54875 70.90006 33987 ft 508 kts 105°
2026-04-26 10:32 23.53861 70.93696 33187 ft 507 kts 105°
2026-04-26 10:32 23.52851 70.97372 32296 ft 507 kts 105°
2026-04-26 10:32 23.51835 71.01057 31394 ft 507 kts 105°
2026-04-26 10:33 23.50641 71.04678 30479 ft 509 kts 110°
2026-04-26 10:33 23.49332 71.08262 29514 ft 510 kts 110°
2026-04-26 10:33 23.48030 71.11840 28555 ft 509 kts 110°
2026-04-26 10:33 23.46744 71.15423 27830 ft 503 kts 110°
2026-04-26 10:34 23.45487 71.18954 27165 ft 497 kts 110°
2026-04-26 10:34 23.44251 71.22440 26531 ft 491 kts 110°
2026-04-26 10:34 23.43029 71.25893 25882 ft 486 kts 110°
2026-04-26 10:34 23.41807 71.29347 25237 ft 481 kts 110°
2026-04-26 10:35 23.40625 71.32692 24606 ft 476 kts 110°
2026-04-26 10:35 23.39443 71.36036 23979 ft 472 kts 110°
2026-04-26 10:35 23.38270 71.39353 23347 ft 468 kts 110°
2026-04-26 10:35 23.37107 71.42642 22635 ft 463 kts 110°
2026-04-26 10:36 23.35957 71.45889 21997 ft 457 kts 110°
2026-04-26 10:36 23.34819 71.49102 21353 ft 451 kts 110°
2026-04-26 10:36 23.33697 71.52264 20710 ft 446 kts 110°
2026-04-26 10:36 23.32586 71.55398 20088 ft 441 kts 110°
2026-04-26 10:37 23.31484 71.58499 19453 ft 437 kts 110°
2026-04-26 10:37 23.30394 71.61569 18815 ft 434 kts 110°
2026-04-26 10:37 23.29309 71.64620 18171 ft 431 kts 110°
2026-04-26 10:37 23.28232 71.67646 17460 ft 427 kts 110°
2026-04-26 10:38 23.27166 71.70642 16796 ft 422 kts 111°
2026-04-26 10:38 23.26108 71.73610 16147 ft 418 kts 111°
2026-04-26 10:38 23.25063 71.76542 15507 ft 414 kts 111°
2026-04-26 10:38 23.24026 71.79446 14875 ft 410 kts 111°
2026-04-26 10:39 23.23143 71.82379 14265 ft 408 kts 102°
2026-04-26 10:39 23.22906 71.85400 13687 ft 407 kts 88°
2026-04-26 10:39 23.23067 71.88515 13029 ft 404 kts 86°
2026-04-26 10:39 23.23274 71.91514 12284 ft 397 kts 85°
2026-04-26 10:40 23.23486 71.94519 11565 ft 398 kts 85°
2026-04-26 10:40 23.23693 71.97479 11009 ft 382 kts 86°
2026-04-26 10:40 23.23775 72.00245 10773 ft 354 kts 90°
2026-04-26 10:40 23.23770 72.02850 10719 ft 336 kts 90°
2026-04-26 10:41 23.23757 72.05322 10714 ft 317 kts 90°
2026-04-26 10:41 23.23744 72.07646 10718 ft 308 kts 90°
2026-04-26 10:41 23.23733 72.09972 10722 ft 308 kts 91°
2026-04-26 10:41 23.23722 72.12292 10716 ft 308 kts 90°
2026-04-26 10:42 23.23709 72.14621 10717 ft 307 kts 90°
2026-04-26 10:42 23.23697 72.16855 10715 ft 307 kts 90°
2026-04-26 10:42 23.23685 72.19164 10636 ft 302 kts 90°
2026-04-26 10:42 23.23675 72.21440 10233 ft 301 kts 91°
2026-04-26 10:43 23.23667 72.23728 9784 ft 303 kts 91°
2026-04-26 10:43 23.23663 72.26012 9374 ft 301 kts 90°
2026-04-26 10:43 23.23660 72.28285 8926 ft 301 kts 90°
2026-04-26 10:43 23.23656 72.30555 8504 ft 300 kts 90°
2026-04-26 10:44 23.23651 72.32826 8063 ft 300 kts 90°
2026-04-26 10:44 23.23643 72.35089 7657 ft 298 kts 90°
2026-04-26 10:44 23.23633 72.37336 7247 ft 297 kts 90°
2026-04-26 10:44 23.23620 72.39556 6860 ft 296 kts 90°
2026-04-26 10:45 23.23606 72.41795 6468 ft 295 kts 90°
2026-04-26 10:45 23.23591 72.44022 6077 ft 294 kts 90°
2026-04-26 10:45 23.23576 72.46234 5672 ft 292 kts 90°
2026-04-26 10:45 23.23560 72.48436 5271 ft 291 kts 90°
2026-04-26 10:46 23.23544 72.50628 4869 ft 289 kts 91°
2026-04-26 10:46 23.23532 72.52753 4466 ft 274 kts 90°
2026-04-26 10:46 23.23519 72.54773 4047 ft 261 kts 91°
2026-04-26 10:46 23.23504 72.56707 3651 ft 252 kts 90°
2026-04-26 10:47 23.23491 72.58572 3284 ft 242 kts 91°
2026-04-26 10:47 23.23478 72.60367 2923 ft 233 kts 90°
2026-04-26 10:47 23.23463 72.62095 2585 ft 224 kts 91°
2026-04-26 10:47 23.23447 72.63754 2253 ft 214 kts 90°
2026-04-26 10:48 23.23436 72.65352 2019 ft 207 kts 90°
2026-04-26 10:48 23.23433 72.66899 1985 ft 204 kts 90°
2026-04-26 10:48 23.23432 72.68422 1985 ft 204 kts 90°
2026-04-26 10:48 23.23441 72.69961 1986 ft 203 kts 90°
2026-04-26 10:49 23.23434 72.71494 1984 ft 203 kts 93°
2026-04-26 10:49 23.23003 72.72928 1987 ft 201 kts 127°
2026-04-26 10:49 23.21914 72.73815 1989 ft 196 kts 164°
2026-04-26 10:49 23.20594 72.73954 1986 ft 186 kts 187°
2026-04-26 10:50 23.19388 72.73831 1984 ft 166 kts 189°
2026-04-26 10:50 23.18632 72.73724 1986 ft 166 kts 190°
2026-04-26 10:50 23.17091 72.73494 1989 ft 168 kts 191°
2026-04-26 10:50 23.16021 72.73044 1993 ft 166 kts 225°
2026-04-26 10:51 23.15382 72.72084 1916 ft 150 kts 237°
2026-04-26 10:51 23.14199 72.70430 1588 ft 133 kts 230°
2026-04-26 10:51 23.13561 72.69704 1416 ft 132 kts 227°
2026-04-26 10:52 23.12902 72.69002 1251 ft 133 kts 227°
2026-04-26 10:52 23.12240 72.68289 1087 ft 135 kts 226°
2026-04-26 10:52 23.11573 72.67569 946 ft 135 kts 224°
2026-04-26 10:52 23.10897 72.66844 763 ft 136 kts 222°
2026-04-26 10:53 23.10229 72.66126 655 ft 136 kts 226°
2026-04-26 10:53 23.09550 72.65414 403 ft 132 kts 226°
2026-04-26 10:53 23.08900 72.64717 239 ft 132 kts 229°
2026-04-26 10:54 23.07886 72.63619 211 ft 64 kts 224°
2026-04-26 10:54 23.07727 72.63395 210 ft 32 kts 252°
2026-04-26 10:54 23.07681 72.63205 203 ft 0 kts 256°
2026-04-26 10:56 23.07680 72.63202 204 ft 1 kts 256°
2026-04-26 10:56 23.07673 72.63174 207 ft 6 kts 255°
2026-04-26 10:57 23.07647 72.63114 211 ft 11 kts 232°
2026-04-26 10:57 23.07579 72.63037 206 ft 17 kts 225°
2026-04-26 10:57 23.07481 72.62934 207 ft 21 kts 223°
2026-04-26 10:57 23.07470 72.62867 204 ft 8 kts 293°
2026-04-26 10:58 23.07517 72.62806 209 ft 13 kts 311°
2026-04-26 10:58 23.07506 72.62720 206 ft 15 kts 232°
2026-04-26 10:58 23.07428 72.62629 207 ft 18 kts 226°
2026-04-26 10:58 23.07332 72.62521 205 ft 21 kts 229°
2026-04-26 10:59 23.07285 72.62461 207 ft 0 kts 243°
2026-04-26 10:59 23.07287 72.62456 207 ft 2 kts 272°
2026-04-26 10:59 23.07292 72.62452 202 ft 1 kts 312°
2026-04-26 10:59 23.07308 72.62436 207 ft 7 kts 317°
2026-04-26 11:00 23.07332 72.62411 207 ft 0 kts 316°